Temp_Advection
nan nan nan nan nan nan nan nan nan nan nan nan nan nan nan nan nan nan nan nan nan nan nan nan nan nan nan nan nan nan nan nan nan nan nan nan nan nan nan nan nan nan nan nan nan nan nan nan nan nan nan nan
nan -0 -0 -0 -0 0 0 0 -0 -0 -0 -0 -0 -0 -0 -0 -0 -0 -0 -0 -0 -0 -0 -0 -0 -0 -0 -0 -0 -0 -0 -0 -0 -0 -0 -0 -0 -0 -0 -0 -0 -0 -0 -0 -0 -0 -0 -0 -0 -0 -0 nan
nan -0 -0 -0 -0 -0 -0 -0 -0 -0 -0 -0 -0 -0 -0 -0 -0 -0 -0 -0 -0 -0 -0 -0 -0 -0 -0 -0 -0 -0 -0 -0 -0 -0 -0 -0 -0 -0 -0 -0 -0 -0 -0 -0 -0 -0 -0 -0 -0 -0 -0 nan
nan -0 -0 -0 -0 -0 -0 -0 -0 -0 -0 -0 -0 -0 -0 -0 -0 -0 -0 -0 -1 -0 -1 -1 -1 -0 -0 -0 -0 -0 -0 -0 -0 -0 -0 -0 -0 -0 -0 -0 -0 -0 -0 -0 -0 -0 -0 -0 -0 -0 -0 nan
nan -0 -0 -0 -0 -0 -0 -0 -0 -0 -0 -0 -0 -0 -0 -0 -0 -0 -0 -0 -1 -1 -1 -1 -1 -1 -1 -0 -0 -0 -0 -0 0 -0 -0 -0 -0 -0 -0 -0 -0 -0 -0 -0 -0 -0 -0 -0 -0 -0 -0 nan
nan -0 -0 -0 -0 -0 -0 -0 -0 -0 -0 -0 -0 -0 -0 -0 -0 -0 0 0 -0 -0 -0 -0 -0 -0 -0 -0 -0 -0 -0 -0 0 0 -0 -0 -0 -0 -0 0 0 -0 -0 -0 -0 -0 -0 -0 0 0 -0 nan
nan -0 0 0 0 0 -0 -0 -0 -0 -0 -0 -0 -0 -0 -0 -0 -0 -0 0 0 -0 -0 -0 -0 -0 -0 -0 -1 -1 -1 -0 -0 0 0 -0 -0 -0 0 0 0 0 0 -0 -0 -0 -0 -0 -0 -0 -0 nan
nan -0 0 0 0 0 0 -0 -0 -0 -0 -0 -0 -0 -0 -0 -0 -0 -0 -0 -0 -0 -0 -0 -0 -1 -1 -0 -1 -1 -1 -1 -1 -0 -0 -0 0 -0 -0 -0 -0 -0 0 0 -0 -0 -0 -0 -0 -0 -0 nan
nan -0 -0 0 0 0 0 0 -0 -0 -0 -0 -0 -0 -0 -0 -0 -0 -0 -0 -0 -0 -0 -0 -0 -1 -1 -1 -1 -1 -1 -1 -1 -1 -1 -0 0 0 -0 -0 -0 -0 -0 -0 -0 0 -0 -0 -0 -0 -0 nan
nan 0 0 0 0 0 0 0 0 -0 -0 -0 -0 -0 -0 -0 0 -0 -0 -0 -0 -0 -0 -0 -0 -0 -1 -1 -1 -1 -1 -1 -1 -1 -1 -1 -0 -0 -0 -1 -1 -0 -0 -1 -0 -0 0 0 0 0 0 nan
nan 0 0 0 0 0 0 0 -0 -0 -0 -0 -0 -0 -0 -0 -0 0 0 0 0 0 -0 -0 -0 -0 -0 -1 -1 -1 -1 -1 -1 -1 -1 -1 -1 -1 -0 -0 -1 -1 -1 -1 -1 -1 -0 -0 -0 0 0 nan
nan 0 0 0 0 0 0 0 -0 -0 -0 -0 -0 -0 -0 -0 -0 -0 0 -0 -0 0 0 0 -0 -0 -0 -0 -0 -0 -1 -1 -0 -0 -0 -0 -1 -1 -1 -0 -0 -0 -0 -0 -1 -1 -1 -1 -0 -0 -0 nan
nan 0 0 0 0 0 -0 -0 -0 -0 -0 -0 -0 -0 -0 -0 -0 -0 -0 -0 -0 -0 0 0 0 0 0 0 0 0 0 -0 -0 -0 -0 0 -0 -1 -1 -1 -0 -0 -0 -0 -0 -0 -1 -1 -1 -1 -0 nan
nan 0 0 0 0 0 -0 -0 -0 -0 -0 -0 -0 -0 -0 -0 -0 -0 -0 -0 -0 -0 -0 0 0 0 0 0 0 0 0 0 -0 -0 0 0 0 -0 -0 -1 -1 -1 -0 0 -0 -0 -0 -0 -1 -1 -1 nan
nan 0 0 0 0 0 0 0 -0 -0 -0 -0 -0 -0 -0 -0 -0 -0 -0 -0 -0 -0 -0 -0 -0 -0 -0 -0 0 0 0 0 0 -0 -0 -0 -0 -0 -0 -1 -1 -1 -1 -0 0 -0 -0 -0 -1 -1 -1 nan
nan 0 0 0 0 0 0 0 -0 -0 -0 -0 -0 -0 -0 -0 -0 -0 -0 -0 -0 -0 -0 -0 -0 -0 -0 -0 -0 -0 -0 -0 0 -0 -0 -0 -0 -0 -1 -1 -1 -1 -1 -1 -0 -0 -0 -0 -0 -0 -1 nan
nan 0 0 0 0 0 0 -0 -0 -0 -0 -0 -0 -0 -0 -0 -0 -0 -0 -0 -0 -1 -0 -0 -0 -0 -1 -1 -0 -0 -0 -0 -0 0 0 -0 -0 -0 -0 -1 -0 -1 -1 -1 -1 -1 -1 -1 -0 -0 -0 nan
nan 0 0 -0 -0 -0 -0 0 0 -0 -0 -0 -0 -0 -0 -0 -0 -0 -0 -0 -0 -1 -1 -0 -0 -1 -1 -1 -1 -1 -1 -0 -0 -0 -0 -0 -0 -0 -0 -0 -0 -1 -1 -1 -1 -0 -1 -1 -0 -0 -0 nan
nan -0 0 0 -0 -0 -0 -0 -0 -0 -0 -0 -0 -0 -0 -0 -0 -0 -0 -0 -0 -0 -1 -1 -1 -1 -1 -1 -1 -1 -1 -1 -0 -0 -0 -1 -1 -0 -0 -0 -0 -0 -1 -1 -1 -1 -0 -0 -0 -1 -1 nan
nan 0 0 0 0 0 -0 -0 -0 -0 -0 -1 -1 -1 -1 -1 -1 -1 -1 -1 -1 -0 -1 -1 -1 -1 -1 -1 -1 -1 -1 -1 -1 -1 -0 -0 -1 -1 -1 -0 -0 -0 -0 -1 -1 -1 -1 -0 -0 -1 -1 nan
nan 0 0 0 0 0 -0 -0 -1 -1 -1 -1 -1 -1 -1 -1 -1 -1 -2 -1 -1 -1 -1 -1 -1 -1 -1 -1 -1 -1 -1 -1 -1 -1 -1 -0 0 -1 -2 -1 -1 -1 -1 -1 -1 -1 -0 -0 -0 -1 -1 nan
nan 0 0 0 0 0 0 -0 -0 -1 -1 -1 -1 -1 -1 -1 -1 -1 -2 -1 -1 -1 -1 -1 -1 -1 -1 -1 -1 -1 -1 -1 -1 -1 -2 -1 -0 -0 -1 -1 -1 -1 -1 -2 -1 -1 -0 -0 -0 -1 -1 nan
nan 0 0 0 0 0 -0 0 0 -0 -1 -1 -0 -1 -1 -1 -1 -1 -1 -1 -1 -1 -1 -1 -1 -1 -1 -1 -1 -1 -1 -1 -1 -1 -1 -1 -1 -0 0 -0 -1 -2 -2 -2 -2 -1 -1 -1 -1 -1 -0 nan
nan -0 0 -0 -0 0 -0 -0 -0 -0 -1 -1 -1 -1 -1 -1 -1 -1 -1 -1 -1 -1 -1 -1 -1 -1 -1 -1 -1 -1 -1 -1 -1 -1 -1 -1 -1 -1 -0 0 -0 -1 -2 -2 -2 -1 -1 -1 -1 -1 -0 nan
nan -1 -0 -0 -0 -0 -0 -0 -0 -0 -0 -1 -1 -1 -1 -1 -1 -1 -1 -1 -1 -1 -1 -1 -1 -1 -1 -1 -1 -1 -1 -1 -1 -1 -1 -1 -1 -1 -2 -1 -0 -1 -2 -3 -3 -3 -2 -0 0 -0 -0 nan
nan -1 -1 -1 -1 -1 -1 -1 -1 -1 -1 -1 -1 -1 -1 -1 -1 -1 -1 -1 -1 -1 -1 -1 -1 -1 -1 -1 -1 -1 -0 -0 -0 -1 -1 -1 -1 -1 -1 -1 -1 -1 -1 -2 -3 -4 -5 -4 -1 0 1 nan
nan -1 -1 -1 -1 -1 -1 -1 -1 -1 -1 -1 -1 -1 -1 -1 -0 -1 -1 -1 -1 -1 -1 -1 -1 -1 -2 -2 -1 -1 -1 -0 -0 -1 -1 -1 -1 -1 -1 -0 -0 -0 -0 -1 -2 -3 -4 -5 -6 -4 -1 nan
nan -1 -1 -0 -0 -1 -1 -1 -1 -1 -1 -1 -1 -1 -1 -0 -0 -0 -0 -0 -0 -1 -1 -1 -1 -1 -1 -1 -1 -1 -1 -1 -1 -1 -1 -1 -1 -1 -1 -1 -1 0 0 0 -0 -1 -2 -2 -4 -4 -4 nan
nan -1 -0 -0 -0 -0 -0 -1 -1 -1 -1 -0 -1 -1 -1 -0 -0 -0 -0 -0 -0 -0 -1 -1 -0 -1 -1 -1 -1 -1 -1 -1 -1 -1 -1 -1 -1 -1 -1 -2 -2 -1 0 0 1 1 -1 -1 -1 -2 -4 nan
nan -0 0 0 -0 -0 -1 -1 -1 -1 -1 -0 -1 -1 -1 -1 -0 -0 -0 -0 -0 -0 -0 -1 -1 -1 -1 -1 -1 -0 -1 -1 -1 -1 -1 -1 -1 -1 -1 -1 -2 -2 -1 -0 1 1 1 0 0 -1 -2 nan
nan nan nan nan nan nan nan nan nan nan nan nan nan nan nan nan nan nan nan nan nan nan nan nan nan nan nan nan nan nan nan nan nan nan nan nan nan nan nan nan nan nan nan nan nan nan nan nan nan nan nan nan
Wind_Speed
8 7 7 6 6 6 5 4 5 6 6 6 6 6 6 6 7 7 7 7 6 6 7 8 10 11 11 11 11 11 12 12 11 10 9 9 9 9 8 7 5 4 4 5 6 7 7 7 8 9 9 9
7 7 6 6 4 4 2 4 5 5 5 5 5 6 7 7 8 8 8 7 6 6 7 9 10 11 12 12 12 12 12 12 12 11 10 10 10 9 9 8 8 6 4 4 5 6 6 6 8 9 9 9
2 2 1 1 2 3 4 5 5 5 5 6 6 7 8 9 9 10 9 8 7 8 9 10 12 12 13 13 13 13 13 13 12 12 11 10 10 10 10 9 8 8 7 6 5 6 6 7 7 8 9 9
1 2 4 4 5 5 6 6 6 6 6 7 7 7 8 9 10 10 10 10 11 11 12 13 14 14 14 13 13 12 12 12 12 12 12 11 11 11 10 10 9 9 9 9 8 7 7 7 8 8 9 9
2 4 4 5 5 5 5 6 6 6 6 7 7 7 8 9 9 9 10 11 12 13 14 14 15 15 15 14 13 12 12 12 12 12 12 12 12 12 12 11 10 10 10 10 10 10 9 8 9 9 9 9
4 3 3 3 3 3 5 6 6 7 8 8 9 9 9 10 10 10 10 9 11 13 14 15 16 16 15 14 14 14 14 13 12 12 12 13 13 13 13 13 12 11 11 11 11 11 11 10 9 10 10 10
3 2 1 1 2 2 4 7 7 8 9 10 11 10 10 10 11 11 11 10 11 13 14 15 16 16 16 16 17 17 16 15 15 13 13 14 14 14 14 14 13 12 11 12 12 11 11 11 10 10 10 10
3 3 3 3 3 3 5 7 8 9 9 10 10 10 9 9 9 10 10 11 11 12 14 15 16 17 18 18 19 19 19 18 17 16 16 15 15 15 15 14 14 13 12 12 12 12 12 11 11 11 11 11
1 2 3 3 3 4 5 5 7 8 8 9 9 10 9 8 9 9 10 11 11 13 14 15 17 18 19 19 19 19 19 19 19 19 18 18 17 16 16 16 15 14 14 13 13 12 12 12 11 10 11 11
3 2 2 2 1 3 4 5 6 7 8 9 10 10 10 9 9 10 10 11 12 13 15 16 17 19 19 19 19 19 19 19 19 19 20 20 19 18 17 17 17 17 17 16 15 14 13 13 12 11 10 11
5 3 3 3 3 4 4 5 7 8 8 9 10 10 10 10 10 11 11 12 13 14 15 17 18 19 19 19 19 19 19 19 19 20 20 21 21 20 18 19 20 19 19 19 18 17 16 15 14 12 11 11
5 4 3 3 4 5 5 6 8 8 9 10 11 11 11 10 10 11 12 12 13 14 15 17 18 19 19 20 20 20 20 21 21 21 21 22 23 22 21 21 22 22 21 21 20 20 19 18 16 15 14 14
5 4 4 3 3 3 5 7 8 8 9 11 11 12 11 10 10 10 11 12 13 14 16 17 19 20 21 22 22 22 22 23 23 23 23 24 24 24 24 24 24 24 23 22 22 22 22 21 19 18 17 16
5 6 6 5 4 4 6 7 8 9 10 11 11 11 11 11 12 12 13 14 15 17 18 19 20 22 23 24 24 24 24 24 25 25 25 25 26 26 26 26 25 25 25 25 24 23 23 23 22 21 20 19
6 7 7 8 7 8 8 8 9 10 10 10 10 11 12 13 14 16 17 17 18 20 20 21 22 23 25 25 25 25 25 25 25 25 26 27 27 27 27 27 27 27 27 27 26 25 25 24 24 23 22 22
6 7 7 8 8 9 10 10 10 10 11 11 12 13 14 16 18 19 20 21 22 23 23 23 24 25 25 26 25 25 26 25 25 26 26 26 27 28 28 29 28 28 28 28 27 27 26 25 25 25 24 24
5 5 6 7 8 9 10 11 12 12 13 15 16 18 18 19 20 21 23 23 24 24 25 25 25 25 26 26 26 25 26 26 25 26 26 26 27 28 28 29 29 28 28 28 28 27 27 27 26 26 25 25
5 6 6 7 9 11 12 14 16 17 18 19 20 22 22 22 23 23 24 25 25 25 26 26 25 26 26 26 26 25 26 26 26 26 26 27 27 28 28 28 28 28 28 28 27 27 27 27 27 27 26 26
7 8 9 11 13 15 17 18 20 21 22 23 24 25 25 26 26 26 26 26 26 26 27 27 27 27 27 27 26 26 26 26 26 26 27 27 28 29 28 28 28 28 29 28 28 28 27 28 28 28 28 28
10 11 12 14 16 18 20 21 22 23 24 25 25 26 27 28 28 28 28 28 29 28 28 29 29 29 29 28 27 27 26 26 27 27 27 27 28 30 30 30 29 29 29 29 29 29 29 29 29 29 29 29
14 15 16 18 18 19 20 21 23 24 24 25 25 26 27 28 28 29 29 30 30 30 30 30 30 30 29 29 28 27 27 27 27 28 29 28 27 29 30 31 31 31 30 31 31 31 31 30 30 30 30 29
18 19 20 21 21 21 21 21 22 23 24 24 25 26 27 28 28 28 29 29 30 30 30 30 30 30 29 29 28 27 27 27 27 27 29 30 29 28 29 30 31 31 32 32 33 33 32 31 31 31 30 30
20 21 21 22 22 22 22 23 23 23 24 25 25 25 26 27 28 28 29 29 30 29 29 29 29 29 28 27 27 26 26 26 26 27 27 29 29 29 29 29 30 31 32 34 34 34 33 33 32 32 30 29
22 22 23 23 23 23 23 24 24 24 25 26 27 27 27 28 28 29 30 30 29 29 28 28 28 28 27 26 25 25 25 26 26 26 27 28 29 29 29 28 28 29 31 34 35 35 34 34 33 32 31 30
24 25 26 26 26 26 26 26 26 27 27 28 29 29 29 29 29 29 29 29 28 28 27 27 27 27 26 25 23 23 23 24 25 25 26 27 28 28 29 29 27 27 29 32 34 35 36 35 32 31 30 29
25 26 27 27 27 27 27 27 28 29 29 30 31 30 30 29 28 27 26 26 26 26 26 26 26 26 25 24 22 22 22 23 23 23 25 27 27 27 27 28 26 25 26 28 30 33 36 36 33 30 28 26
26 27 27 27 27 27 28 28 29 31 31 31 31 29 28 27 24 23 23 23 24 24 25 26 26 26 26 25 23 23 23 23 22 22 23 24 25 26 27 26 24 23 22 24 27 27 28 30 32 32 28 24
28 29 29 28 27 27 28 29 30 31 31 29 28 26 25 23 21 20 21 21 21 22 24 25 26 26 26 25 24 23 24 24 23 22 23 22 23 25 26 26 24 22 19 21 22 20 20 22 24 24 24 24
29 31 31 30 28 28 28 29 30 31 29 27 26 25 23 22 19 18 19 20 20 21 23 24 25 26 26 25 24 23 24 24 23 22 22 22 22 23 24 25 25 23 19 18 18 17 18 17 14 17 23 28
30 31 31 31 30 29 30 31 31 29 28 27 26 25 24 22 20 18 18 18 18 19 21 23 24 25 25 24 23 23 23 24 23 22 21 20 21 21 21 22 25 23 20 18 17 16 16 14 14 20 25 25
29 30 30 30 30 30 30 31 30 27 26 26 25 25 24 23 21 19 19 18 17 18 20 22 23 23 23 23 22 22 22 23 22 22 21 20 20 20 20 20 22 22 21 19 18 17 17 18 19 22 23 21
Wind_Direction
129 122 123 126 114 107 107 87 58 42 25 6 355 350 343 337 333 334 338 339 337 336 337 338 336 333 331 329 326 323 319 316 313 310 306 304 303 304 304 302 292 268 262 271 275 274 272 273 273 269 268 265
137 124 135 147 128 99 75 26 23 14 358 343 342 339 330 325 322 326 335 338 329 322 324 330 334 333 331 328 324 321 318 316 316 313 310 307 306 306 305 305 304 298 280 268 271 272 271 264 262 265 268 268
145 116 113 90 41 27 4 359 1 348 337 333 334 331 326 324 324 328 334 336 324 314 317 323 328 330 329 326 323 320 316 315 315 314 313 309 307 307 305 305 305 304 301 290 281 275 276 270 261 258 260 263
317 321 333 353 359 359 353 346 340 336 332 326 326 325 325 325 326 331 334 334 329 324 323 322 323 325 325 323 321 317 314 313 313 312 310 308 305 304 302 303 303 303 303 301 297 289 283 281 277 270 264 263
341 343 348 355 354 349 337 329 324 320 316 312 312 314 316 317 319 325 332 337 333 329 325 322 322 323 323 321 319 316 313 310 308 307 305 304 302 302 301 301 302 301 301 301 299 295 290 287 284 283 281 277
19 14 360 354 348 344 320 304 301 302 304 304 305 309 312 312 316 320 324 329 325 321 318 318 320 321 321 320 318 314 311 308 304 301 299 299 299 300 300 300 300 300 301 300 298 295 293 291 289 289 289 288
17 6 313 291 297 311 296 291 295 301 302 305 308 312 317 316 316 318 316 315 314 312 312 314 317 318 320 319 318 314 309 306 301 297 294 294 295 297 298 297 296 297 298 298 299 299 297 297 295 294 294 294
307 294 284 280 282 277 279 290 295 297 299 303 308 313 320 317 310 311 308 307 306 304 305 308 312 313 315 316 315 312 309 306 303 300 296 292 292 295 295 294 294 296 297 299 301 302 301 300 300 300 299 299
257 287 290 286 286 281 279 285 284 286 290 295 302 308 314 312 305 302 298 299 298 299 302 304 307 308 309 310 310 308 307 306 304 302 298 294 292 294 295 293 294 297 298 299 299 299 300 301 301 303 302 302
178 202 224 218 237 256 257 258 262 270 279 289 297 302 304 304 299 294 293 293 293 295 298 300 303 305 306 306 306 304 303 303 302 301 300 297 295 297 298 297 296 298 300 298 296 295 296 298 297 297 297 299
191 192 201 201 215 234 242 250 257 268 279 288 294 298 300 300 295 291 288 286 288 290 294 299 301 303 304 304 304 303 302 300 300 300 299 298 298 299 299 298 297 298 299 298 296 294 294 293 292 290 290 290
176 158 183 202 226 246 258 263 269 277 285 290 294 301 304 304 299 293 289 287 289 293 298 302 304 305 304 303 303 302 301 300 300 299 298 298 297 299 298 295 295 296 296 295 295 294 292 290 287 285 285 286
195 186 203 217 240 266 279 277 282 287 289 292 295 299 301 301 300 296 296 296 298 301 303 306 307 307 306 306 305 303 302 301 300 299 297 296 296 297 296 294 293 293 292 292 292 291 290 289 287 284 283 283
231 233 241 250 263 277 285 287 293 293 292 295 295 297 299 301 304 304 303 303 304 305 306 307 308 307 306 307 307 307 305 303 301 299 298 296 295 295 294 293 293 292 291 290 291 290 289 288 287 285 285 286
246 252 258 263 270 273 278 285 289 292 293 294 293 296 301 306 308 308 307 306 306 306 307 307 307 306 305 305 306 307 306 305 302 300 298 296 295 295 294 293 293 292 291 290 291 291 290 289 288 287 288 288
254 260 264 267 274 278 283 288 291 297 301 302 302 304 307 310 310 310 309 308 307 307 307 306 306 305 304 304 304 305 305 304 302 299 297 295 294 293 292 292 292 292 292 291 292 292 291 290 288 288 289 289
272 271 272 277 284 289 295 299 304 308 311 312 312 310 311 311 310 309 307 307 307 306 306 305 305 303 302 302 302 302 302 301 300 298 295 293 291 290 289 290 290 290 290 290 290 290 290 288 287 288 289 289
295 295 298 304 305 305 305 306 310 312 312 312 311 309 308 307 306 305 304 304 304 304 303 303 302 301 300 299 299 299 298 297 296 295 294 293 291 289 289 289 289 289 288 287 286 286 286 286 286 287 287 287
316 317 317 317 314 311 309 309 309 310 310 308 307 306 305 304 303 302 302 301 301 302 302 301 300 299 297 297 297 296 295 294 293 292 291 291 290 288 288 287 287 287 287 286 286 285 284 284 285 284 284 285
314 312 310 308 307 306 306 305 305 305 305 305 305 304 303 303 302 302 302 301 301 301 301 300 299 298 297 296 295 294 293 292 290 289 287 287 287 287 286 286 285 284 285 285 284 284 283 283 282 282 282 283
303 302 303 302 302 302 302 303 303 302 302 303 304 303 303 303 303 304 304 304 303 303 302 300 299 298 297 297 296 295 293 291 289 288 286 285 285 285 285 285 284 284 283 283 282 281 281 281 281 282 282 283
300 300 301 301 301 301 301 301 301 302 301 302 302 303 304 303 305 306 305 305 304 304 303 301 299 297 297 296 296 296 294 292 290 288 287 286 285 285 285 284 285 285 284 283 281 280 280 280 280 280 280 281
300 299 300 300 300 300 300 301 302 304 303 303 304 304 305 305 306 307 307 306 305 304 303 300 298 297 296 296 296 295 294 292 290 288 287 285 284 283 283 285 286 286 286 284 283 282 281 280 279 279 280 280
306 305 305 304 304 305 306 307 308 311 312 311 310 310 311 310 311 310 309 307 305 303 301 299 298 297 297 297 297 296 294 293 291 290 288 286 285 284 283 283 285 286 286 285 284 283 281 280 280 280 280 280
315 313 312 312 312 312 314 315 316 317 318 317 316 316 315 314 315 313 311 309 306 304 302 299 297 295 295 296 297 296 294 294 293 293 291 288 288 289 288 287 287 287 287 287 286 284 281 279 279 280 280 280
324 321 318 316 316 315 316 318 319 319 320 319 317 317 316 316 316 314 311 309 307 306 305 302 300 298 298 299 299 297 295 294 293 293 291 290 290 290 289 290 291 292 292 291 291 292 290 286 282 279 278 278
332 331 326 320 318 318 318 320 321 320 320 318 316 317 316 316 317 313 310 309 308 308 306 304 303 303 303 304 304 301 298 296 295 294 291 292 293 291 289 289 290 291 293 293 295 298 296 296 296 290 285 278
337 337 334 327 320 319 319 320 321 321 320 318 317 318 317 318 319 314 310 309 309 307 304 303 303 304 305 307 308 305 303 301 301 299 296 295 294 293 292 291 289 287 288 291 296 300 296 299 302 295 293 286
337 338 337 332 325 321 320 321 322 322 321 319 320 320 318 319 320 315 310 309 308 304 301 301 301 303 304 306 307 306 304 304 304 303 300 299 296 294 296 295 293 291 289 287 288 293 296 301 299 288 294 296
334 335 335 333 328 325 324 324 324 323 321 320 321 320 318 318 318 315 311 308 306 302 299 298 299 300 302 304 306 306 305 304 305 303 301 301 297 296 297 295 295 294 291 285 281 280 280 278 276 283 294 300
327 330 333 332 328 326 326 325 324 322 319 319 319 317 316 316 315 315 314 310 305 300 298 297 297 298 300 301 304 305 304 303 304 304 302 301 299 298 298 296 296 297 295 289 280 274 270 263 261 271 283 291
Height
1572 1572 1573 1573 1572 1571 1570 1570 1569 1569 1568 1568 1568 1568 1567 1566 1566 1565 1565 1564 1564 1563 1563 1562 1561 1561 1560 1559 1559 1558 1557 1556 1556 1555 1554 1553 1552 1552 1551 1550 1550 1550 1549 1548 1547 1547 1547 1546 1546 1545 1545 1544
1572 1572 1572 1572 1572 1571 1570 1570 1570 1569 1569 1569 1568 1568 1567 1566 1566 1565 1565 1564 1564 1563 1563 1562 1561 1561 1560 1559 1558 1558 1557 1556 1555 1555 1554 1553 1552 1551 1550 1549 1549 1549 1548 1548 1547 1546 1546 1546 1545 1544 1544 1544
1573 1573 1572 1572 1572 1571 1571 1570 1570 1570 1570 1569 1568 1567 1567 1566 1565 1565 1565 1564 1564 1563 1562 1562 1561 1561 1560 1559 1558 1557 1556 1555 1555 1554 1553 1552 1551 1551 1550 1549 1548 1547 1547 1547 1546 1546 1545 1545 1545 1544 1543 1543
1574 1573 1573 1572 1572 1572 1571 1571 1570 1570 1569 1569 1568 1567 1566 1566 1565 1565 1564 1564 1563 1562 1562 1561 1561 1560 1559 1559 1558 1557 1556 1555 1554 1553 1552 1552 1551 1550 1549 1548 1547 1546 1545 1545 1545 1544 1544 1544 1543 1543 1542 1542
1574 1574 1574 1573 1573 1572 1572 1571 1570 1570 1569 1568 1567 1567 1566 1565 1565 1564 1564 1563 1563 1562 1561 1560 1560 1559 1558 1558 1557 1556 1555 1554 1553 1552 1551 1551 1550 1549 1548 1547 1546 1545 1544 1543 1543 1543 1542 1542 1541 1541 1541 1540
1575 1575 1574 1574 1574 1573 1572 1571 1570 1569 1569 1568 1567 1567 1566 1565 1564 1564 1563 1563 1561 1561 1560 1559 1559 1558 1557 1556 1555 1555 1554 1553 1552 1551 1550 1549 1548 1548 1547 1546 1545 1544 1543 1542 1542 1541 1541 1540 1540 1539 1539 1539
1575 1575 1574 1574 1573 1573 1571 1570 1570 1569 1568 1568 1567 1566 1566 1565 1564 1564 1563 1562 1561 1560 1559 1559 1558 1557 1556 1555 1554 1553 1552 1551 1550 1549 1549 1548 1547 1546 1545 1544 1544 1543 1542 1541 1540 1540 1539 1539 1538 1538 1537 1537
1575 1575 1574 1573 1573 1572 1571 1570 1570 1569 1568 1567 1566 1566 1565 1565 1564 1563 1562 1561 1561 1560 1559 1558 1557 1556 1555 1554 1553 1551 1550 1549 1548 1548 1547 1546 1546 1545 1544 1543 1542 1541 1541 1540 1539 1538 1538 1538 1537 1536 1536 1536
1575 1574 1574 1573 1573 1572 1571 1571 1570 1569 1568 1567 1566 1566 1565 1565 1564 1563 1562 1561 1560 1559 1558 1557 1556 1555 1554 1553 1551 1550 1549 1548 1547 1546 1545 1545 1544 1543 1542 1542 1541 1540 1539 1539 1538 1537 1537 1536 1535 1535 1534 1534
1574 1574 1573 1573 1572 1572 1571 1570 1569 1568 1568 1567 1566 1565 1565 1564 1563 1562 1562 1561 1560 1559 1557 1556 1555 1554 1553 1551 1550 1549 1548 1547 1546 1545 1544 1543 1542 1542 1541 1540 1539 1538 1538 1537 1536 1536 1535 1534 1534 1533 1533 1532
1574 1573 1573 1573 1572 1571 1570 1569 1569 1568 1567 1566 1566 1565 1564 1563 1563 1562 1561 1560 1559 1558 1557 1555 1554 1553 1551 1550 1549 1548 1546 1546 1545 1543 1542 1541 1540 1540 1540 1538 1538 1537 1536 1535 1534 1534 1533 1532 1532 1531 1531 1530
1573 1573 1573 1572 1572 1571 1570 1569 1568 1568 1567 1566 1565 1564 1563 1563 1562 1561 1560 1559 1558 1557 1556 1555 1553 1552 1550 1549 1548 1547 1545 1544 1543 1542 1541 1540 1539 1538 1537 1536 1536 1535 1534 1533 1532 1531 1530 1530 1529 1529 1528 1528
1574 1573 1573 1572 1571 1571 1570 1569 1568 1568 1567 1566 1565 1564 1563 1562 1561 1560 1559 1558 1557 1556 1554 1553 1552 1550 1548 1547 1546 1545 1544 1543 1541 1540 1539 1538 1537 1535 1535 1534 1533 1532 1531 1530 1529 1528 1527 1527 1526 1526 1526 1525
1575 1574 1573 1572 1571 1570 1569 1569 1568 1567 1566 1565 1564 1563 1562 1561 1560 1559 1558 1556 1555 1554 1552 1551 1550 1548 1546 1545 1544 1543 1542 1541 1539 1538 1537 1535 1534 1533 1532 1531 1530 1529 1528 1527 1527 1526 1525 1524 1524 1523 1523 1522
1575 1574 1574 1573 1571 1570 1569 1568 1567 1567 1566 1565 1563 1562 1561 1560 1559 1557 1556 1555 1553 1552 1551 1549 1548 1546 1545 1543 1542 1541 1540 1539 1537 1536 1534 1533 1531 1530 1529 1528 1527 1526 1525 1524 1524 1523 1523 1522 1521 1521 1520 1520
1575 1575 1574 1573 1572 1570 1569 1568 1567 1567 1566 1564 1563 1561 1561 1559 1558 1556 1555 1553 1552 1550 1549 1548 1546 1545 1543 1542 1541 1539 1538 1536 1535 1534 1532 1531 1529 1528 1526 1525 1525 1524 1522 1522 1521 1520 1520 1520 1519 1518 1518 1517
1575 1575 1574 1573 1572 1571 1569 1568 1567 1567 1565 1564 1562 1561 1560 1559 1557 1555 1553 1552 1550 1549 1547 1546 1544 1543 1541 1540 1539 1537 1536 1534 1533 1531 1530 1529 1527 1526 1524 1523 1522 1521 1520 1519 1518 1518 1517 1517 1516 1515 1515 1514
1575 1575 1574 1573 1572 1570 1569 1568 1567 1566 1564 1563 1562 1560 1558 1557 1556 1554 1552 1550 1549 1547 1545 1544 1542 1540 1539 1538 1536 1535 1534 1532 1530 1529 1527 1526 1524 1523 1522 1521 1519 1518 1517 1516 1516 1515 1515 1514 1513 1513 1512 1511
1576 1575 1574 1573 1571 1570 1568 1567 1566 1564 1563 1561 1560 1558 1557 1555 1553 1552 1550 1548 1546 1545 1543 1541 1539 1538 1536 1535 1534 1532 1531 1529 1527 1526 1524 1523 1521 1520 1519 1518 1517 1516 1514 1513 1513 1513 1512 1511 1511 1510 1509 1509
1575 1574 1573 1572 1570 1569 1567 1565 1564 1563 1561 1559 1558 1556 1554 1553 1551 1549 1547 1546 1544 1542 1540 1538 1537 1535 1533 1532 1531 1530 1528 1526 1525 1523 1521 1520 1518 1516 1515 1514 1513 1513 1512 1510 1510 1510 1509 1509 1508 1507 1507 1506
1574 1573 1571 1570 1569 1567 1565 1563 1561 1560 1559 1557 1555 1553 1551 1550 1548 1546 1545 1543 1541 1539 1538 1536 1534 1532 1531 1529 1528 1527 1526 1524 1522 1520 1518 1517 1516 1514 1512 1511 1510 1509 1509 1507 1507 1506 1506 1505 1505 1504 1504 1503
1572 1570 1569 1568 1566 1565 1563 1561 1559 1558 1556 1555 1553 1551 1549 1547 1545 1543 1541 1540 1538 1536 1535 1533 1531 1529 1528 1526 1525 1524 1523 1521 1520 1518 1516 1514 1514 1512 1510 1508 1507 1506 1505 1504 1503 1502 1502 1502 1501 1501 1501 1501
1569 1567 1566 1565 1563 1562 1560 1559 1557 1555 1553 1551 1550 1548 1546 1544 1542 1540 1538 1536 1535 1533 1531 1529 1528 1526 1525 1524 1522 1521 1520 1518 1517 1515 1514 1512 1511 1510 1509 1507 1506 1504 1502 1501 1499 1499 1498 1498 1498 1497 1497 1497
1567 1565 1564 1562 1560 1559 1557 1555 1554 1552 1550 1548 1546 1545 1543 1541 1539 1537 1535 1533 1531 1530 1528 1526 1524 1523 1522 1521 1519 1518 1516 1515 1514 1512 1511 1509 1507 1506 1506 1506 1504 1502 1500 1498 1496 1495 1494 1494 1494 1494 1494 1494
1564 1562 1561 1559 1557 1555 1554 1552 1550 1549 1547 1545 1543 1541 1540 1538 1536 1534 1531 1530 1528 1526 1525 1523 1522 1520 1519 1518 1517 1515 1514 1512 1511 1509 1508 1506 1505 1503 1502 1502 1502 1501 1498 1495 1493 1491 1490 1490 1491 1491 1490 1490
1561 1560 1558 1556 1555 1553 1551 1550 1548 1546 1544 1542 1540 1538 1537 1535 1533 1531 1529 1527 1525 1523 1522 1520 1518 1517 1516 1515 1514 1513 1511 1510 1509 1507 1505 1503 1502 1501 1500 1499 1499 1499 1497 1494 1492 1489 1485 1484 1486 1487 1487 1487
1559 1557 1556 1554 1552 1550 1548 1547 1545 1544 1542 1540 1538 1536 1534 1532 1531 1528 1526 1525 1523 1521 1519 1517 1516 1514 1513 1512 1511 1510 1508 1507 1506 1505 1503 1501 1500 1499 1497 1497 1497 1497 1496 1493 1491 1489 1486 1483 1481 1481 1482 1483
1556 1555 1553 1552 1550 1548 1546 1545 1543 1541 1539 1537 1535 1533 1531 1530 1528 1526 1524 1523 1521 1519 1517 1515 1514 1512 1511 1510 1509 1508 1506 1504 1504 1502 1501 1500 1498 1496 1494 1494 1494 1495 1495 1493 1491 1489 1487 1485 1482 1479 1477 1477
1554 1552 1550 1549 1547 1546 1544 1542 1540 1538 1536 1534 1532 1530 1528 1527 1526 1524 1522 1521 1519 1517 1515 1513 1512 1510 1509 1508 1507 1505 1504 1502 1501 1500 1499 1498 1496 1495 1493 1491 1490 1491 1492 1492 1491 1489 1487 1486 1484 1480 1477 1474
1551 1549 1548 1546 1544 1542 1540 1538 1537 1535 1532 1530 1529 1527 1525 1524 1523 1522 1520 1519 1517 1515 1513 1511 1509 1508 1507 1506 1505 1503 1502 1500 1499 1498 1497 1496 1494 1493 1492 1490 1488 1488 1489 1489 1489 1489 1487 1486 1484 1480 1479 1477
1549 1547 1546 1544 1542 1540 1538 1536 1534 1532 1530 1528 1526 1525 1523 1522 1520 1519 1518 1516 1515 1513 1511 1509 1507 1506 1505 1503 1503 1501 1500 1498 1497 1495 1494 1493 1492 1491 1490 1488 1486 1485 1486 1486 1486 1486 1485 1484 1484 1481 1479 1479